Tracking 20942 objects as of 13-Jul-2020
HD Live streaming from Space Station
objects crossing your sky now

COSMOS 2195

Track COSMOS 2195 now!
10-day predictions
COSMOS 2195 is classified as:


NORAD ID: 22006
Int'l Code: 1992-036A
Perigee: 961.9 km
Apogee: 1,016.0 km
Inclination: 82.9 °
Period: 104.7 minutes
Semi major axis: 7359 km
RCS: 2.4537 m2 (large)
Launch date: July 1, 1992
Source: Commonwealth of Independent States (former USSR) (CIS)
Launch site: PLESETSK MISSILE AND SPACE COMPLEX (PKMTR)
aabbcc
Your satellite tracking list
Your tracking list is empty




NASA's NSSDC Master Catalog

Two Line Element Set (TLE):
1 22006U 92036A   20195.09031282  .00000023  00000-0  84943-5 0  9990
2 22006  82.9330 224.0092 0036755 191.4321 185.3562 13.74952399406588
Source of the keplerian elements: AFSPC